Time,TemperatureF,DewpointF,PressureIn,WindDirection,WindDirectionDegrees,WindSpeedMPH,WindSpeedGustMPH,Humidity,HourlyPrecipIn,Conditions,Clouds,dailyrainin,SoftwareType,DateUTC
2013-05-10 00:15:00,51.7,48.0,30.13,SSE,151,0.0,-999.0,86,-99.99,,,0.00,weatherlink.com 1.10,2013-05-10 07:15:00,
2013-05-10 00:30:00,51.7,48.0,30.14,SSE,150,0.0,-999.0,87,-99.99,,,0.00,weatherlink.com 1.10,2013-05-10 07:30:00,
2013-05-10 00:45:00,51.7,48.0,30.14,SSE,150,0.0,-999.0,87,-99.99,,,0.00,weatherlink.com 1.10,2013-05-10 07:45:00,
2013-05-10 01:00:00,51.7,48.0,30.15,SSE,150,0.0,-999.0,87,-99.99,,,0.00,weatherlink.com 1.10,2013-05-10 08:00:00,
2013-05-10 01:15:00,51.7,48.0,30.14,SSE,150,0.0,-999.0,87,-99.99,,,0.00,weatherlink.com 1.10,2013-05-10 08:15:00,
2013-05-10 01:30:00,51.7,48.0,30.14,SSE,150,0.0,-999.0,87,-99.99,,,0.00,weatherlink.com 1.10,2013-05-10 08:30:00,
2013-05-10 01:45:00,51.6,48.0,30.13,SSE,150,0.0,-999.0,87,-99.99,,,0.00,weatherlink.com 1.10,2013-05-10 08:45:00,
2013-05-10 02:00:00,51.7,48.0,30.13,SSE,150,0.0,-999.0,87,-99.99,,,0.00,weatherlink.com 1.10,2013-05-10 09:00:00,
2013-05-10 02:15:00,51.7,48.0,30.12,SSE,150,0.0,-999.0,87,-99.99,,,0.00,weatherlink.com 1.10,2013-05-10 09:15:00,
2013-05-10 02:30:00,51.7,48.0,30.12,SSE,150,0.0,-999.0,87,-99.99,,,0.00,weatherlink.com 1.10,2013-05-10 09:30:00,
2013-05-10 02:45:00,51.9,48.0,30.12,SSE,150,0.0,-999.0,87,-99.99,,,0.00,weatherlink.com 1.10,2013-05-10 09:45:00,
2013-05-10 03:00:00,51.9,48.0,30.12,SSE,150,0.0,-999.0,87,-99.99,,,0.00,weatherlink.com 1.10,2013-05-10 10:00:00,
2013-05-10 03:15:00,52.0,48.0,30.11,SSE,150,0.0,-999.0,87,-99.99,,,0.00,weatherlink.com 1.10,2013-05-10 10:15:00,
2013-05-10 03:30:00,52.0,48.0,30.11,SSE,150,0.0,-999.0,86,-99.99,,,0.00,weatherlink.com 1.10,2013-05-10 10:30:00,
2013-05-10 03:45:00,52.0,48.0,30.11,SSE,150,0.0,-999.0,86,-99.99,,,0.00,weatherlink.com 1.10,2013-05-10 10:45:00,
2013-05-10 04:00:00,51.7,48.0,30.10,SSE,150,0.0,-999.0,86,-99.99,,,0.00,weatherlink.com 1.10,2013-05-10 11:00:00,
2013-05-10 04:15:00,51.6,48.0,30.10,SSE,150,0.0,-999.0,86,-99.99,,,0.00,weatherlink.com 1.10,2013-05-10 11:15:00,
2013-05-10 04:30:00,51.4,47.0,30.10,SSE,150,0.0,-999.0,86,-99.99,,,0.00,weatherlink.com 1.10,2013-05-10 11:30:00,
2013-05-10 04:45:00,51.3,47.0,30.11,SSE,150,0.0,-999.0,86,-99.99,,,0.00,weatherlink.com 1.10,2013-05-10 11:45:00,
2013-05-10 05:00:00,51.1,47.0,30.10,SSE,150,0.0,-999.0,86,-99.99,,,0.00,weatherlink.com 1.10,2013-05-10 12:00:00,
2013-05-10 05:15:00,51.0,47.0,30.10,SSE,150,0.0,-999.0,87,-99.99,,,0.00,weatherlink.com 1.10,2013-05-10 12:15:00,
2013-05-10 05:30:00,51.0,47.0,30.10,SSE,150,0.0,-999.0,87,-99.99,,,0.00,weatherlink.com 1.10,2013-05-10 12:30:00,
2013-05-10 05:45:00,51.0,47.0,30.10,SSE,150,0.0,-999.0,87,-99.99,,,0.00,weatherlink.com 1.10,2013-05-10 12:45:00,
2013-05-10 06:00:00,50.8,47.0,30.10,SSE,150,0.0,-999.0,87,-99.99,,,0.00,weatherlink.com 1.10,2013-05-10 13:00:00,
2013-05-10 06:15:00,50.8,47.0,30.11,SSE,150,0.0,-999.0,87,-99.99,,,0.00,weatherlink.com 1.10,2013-05-10 13:15:00,
2013-05-10 06:30:00,50.8,47.0,30.11,SSE,150,0.0,-999.0,87,-99.99,,,0.00,weatherlink.com 1.10,2013-05-10 13:30:00,
2013-05-10 06:45:00,50.8,47.0,30.11,NW,314,0.0,-999.0,88,-99.99,,,0.00,weatherlink.com 1.10,2013-05-10 13:45:00,
2013-05-10 07:00:00,51.0,48.0,30.12,NW,314,0.0,-999.0,88,-99.99,,,0.00,weatherlink.com 1.10,2013-05-10 14:00:00,
2013-05-10 07:15:00,51.3,48.0,30.13,NNW,327,0.0,-999.0,89,-99.99,,,0.00,weatherlink.com 1.10,2013-05-10 14:15:00,
2013-05-10 07:30:00,51.6,49.0,30.13,NNW,327,0.0,-999.0,89,-99.99,,,0.00,weatherlink.com 1.10,2013-05-10 14:30:00,
2013-05-10 07:45:00,51.9,49.0,30.14,NNW,327,0.0,-999.0,88,-99.99,,,0.00,weatherlink.com 1.10,2013-05-10 14:45:00,
2013-05-10 08:01:00,52.5,49.0,30.14,NNW,334,0.0,-999.0,88,-99.99,,,0.00,weatherlink.com 1.10,2013-05-10 15:01:00,
2013-05-10 08:15:00,53.1,49.0,30.15,NNW,336,0.0,-999.0,87,-99.99,,,0.00,weatherlink.com 1.10,2013-05-10 15:15:00,
2013-05-10 08:30:00,53.5,50.0,30.14,NNE,15,0.0,-999.0,86,-99.99,,,0.00,weatherlink.com 1.10,2013-05-10 15:30:00,
2013-05-10 08:46:00,53.9,49.0,30.14,NW,323,2.0,-999.0,84,-99.99,,,0.00,weatherlink.com 1.10,2013-05-10 15:46:00,
2013-05-10 09:01:00,55.1,50.0,30.13,SW,223,0.0,-999.0,83,-99.99,,,0.00,weatherlink.com 1.10,2013-05-10 16:01:00,
2013-05-10 09:15:00,57.0,50.0,30.13,SE,138,0.0,-999.0,78,-99.99,,,0.00,weatherlink.com 1.10,2013-05-10 16:15:00,
2013-05-10 09:30:00,58.7,51.0,30.13,SE,126,0.0,-999.0,75,-99.99,,,0.00,weatherlink.com 1.10,2013-05-10 16:30:00,
2013-05-10 09:45:00,60.5,51.0,30.13,SSE,165,0.0,-999.0,72,-99.99,,,0.00,weatherlink.com 1.10,2013-05-10 16:45:00,
2013-05-10 10:01:00,62.4,52.0,30.13,South,170,0.0,-999.0,68,-99.99,,,0.00,weatherlink.com 1.10,2013-05-10 17:01:00,
2013-05-10 10:15:00,63.2,52.0,30.13,ENE,74,1.0,-999.0,66,-99.99,,,0.00,weatherlink.com 1.10,2013-05-10 17:15:00,
2013-05-10 10:30:00,64.5,52.0,30.13,SE,124,2.0,-999.0,65,-99.99,,,0.00,weatherlink.com 1.10,2013-05-10 17:30:00,
2013-05-10 10:46:00,66.8,53.0,30.13,SSE,149,4.0,-999.0,61,-99.99,,,0.00,weatherlink.com 1.10,2013-05-10 17:46:00,
2013-05-10 11:01:00,68.8,54.0,30.13,SE,144,0.0,-999.0,59,-99.99,,,0.00,weatherlink.com 1.10,2013-05-10 18:01:00,
2013-05-10 11:16:00,69.6,53.0,30.13,South,181,1.0,-999.0,56,-99.99,,,0.00,weatherlink.com 1.10,2013-05-10 18:16:00,
2013-05-10 11:31:00,69.9,53.0,30.13,SE,146,6.0,-999.0,56,-99.99,,,0.00,weatherlink.com 1.10,2013-05-10 18:31:00,
2013-05-10 11:46:00,71.1,55.0,30.13,SSE,153,0.0,-999.0,57,-99.99,,,0.00,weatherlink.com 1.10,2013-05-10 18:46:00,
2013-05-10 12:01:00,72.1,54.0,30.12,ESE,103,0.0,-999.0,54,-99.99,,,0.00,weatherlink.com 1.10,2013-05-10 19:01:00,
2013-05-10 12:16:00,72.8,55.0,30.11,SE,128,5.0,-999.0,53,-99.99,,,0.00,weatherlink.com 1.10,2013-05-10 19:16:00,
2013-05-10 12:31:00,73.5,56.0,30.11,SW,219,3.0,-999.0,54,-99.99,,,0.00,weatherlink.com 1.10,2013-05-10 19:31:00,
2013-05-10 12:46:00,74.7,55.0,30.11,East,101,3.0,-999.0,50,-99.99,,,0.00,weatherlink.com 1.10,2013-05-10 19:46:00,
2013-05-10 13:01:00,74.7,55.0,30.10,SE,128,0.0,-999.0,51,-99.99,,,0.00,weatherlink.com 1.10,2013-05-10 20:01:00,
2013-05-10 13:17:00,76.7,55.0,30.10,SSE,152,0.0,-999.0,48,-99.99,,,0.00,weatherlink.com 1.10,2013-05-10 20:17:00,
2013-05-10 13:32:00,77.9,56.0,30.09,SW,225,0.0,-999.0,47,-99.99,,,0.00,weatherlink.com 1.10,2013-05-10 20:32:00,
2013-05-10 13:47:00,79.0,56.0,30.09,SSW,213,2.0,-999.0,46,-99.99,,,0.00,weatherlink.com 1.10,2013-05-10 20:47:00,
2013-05-10 14:01:00,79.0,56.0,30.09,ESE,116,6.0,-999.0,45,-99.99,,,0.00,weatherlink.com 1.10,2013-05-10 21:01:00,
2013-05-10 14:16:00,79.6,58.0,30.08,SSE,157,2.0,-999.0,47,-99.99,,,0.00,weatherlink.com 1.10,2013-05-10 21:16:00,
2013-05-10 14:31:00,79.6,58.0,30.08,SSE,155,0.0,-999.0,48,-99.99,,,0.00,weatherlink.com 1.10,2013-05-10 21:31:00,
2013-05-10 14:46:00,80.7,59.0,30.07,ESE,119,6.0,-999.0,47,-99.99,,,0.00,weatherlink.com 1.10,2013-05-10 21:46:00,
2013-05-10 15:02:00,81.2,58.0,30.07,ESE,118,0.0,-999.0,45,-99.99,,,0.00,weatherlink.com 1.10,2013-05-10 22:02:00,
2013-05-10 15:17:00,82.0,59.0,30.06,SE,144,5.0,-999.0,45,-99.99,,,0.00,weatherlink.com 1.10,2013-05-10 22:17:00,
2013-05-10 15:32:00,82.2,58.0,30.06,East,97,5.0,-999.0,44,-99.99,,,0.00,weatherlink.com 1.10,2013-05-10 22:32:00,
2013-05-10 15:47:00,81.6,58.0,30.05,East,101,5.0,-999.0,45,-99.99,,,0.00,weatherlink.com 1.10,2013-05-10 22:47:00,
2013-05-10 16:02:00,81.8,58.0,30.04,SSE,153,5.0,-999.0,44,-99.99,,,0.00,weatherlink.com 1.10,2013-05-10 23:02:00,
2013-05-10 16:17:00,81.8,58.0,30.04,SSE,163,1.0,-999.0,45,-99.99,,,0.00,weatherlink.com 1.10,2013-05-10 23:17:00,
2013-05-10 16:32:00,81.8,58.0,30.04,SSE,148,2.0,-999.0,45,-99.99,,,0.00,weatherlink.com 1.10,2013-05-10 23:32:00,
2013-05-10 16:47:00,80.5,57.0,30.04,East,97,5.0,-999.0,45,-99.99,,,0.00,weatherlink.com 1.10,2013-05-10 23:47:00,
2013-05-10 17:02:00,80.3,57.0,30.04,SE,140,1.0,-999.0,45,-99.99,,,0.00,weatherlink.com 1.10,2013-05-11 00:02:00,
2013-05-10 17:17:00,79.8,57.0,30.03,SSE,157,6.0,-999.0,46,-99.99,,,0.00,weatherlink.com 1.10,2013-05-11 00:17:00,
2013-05-10 17:32:00,79.0,56.0,30.03,SE,128,4.0,-999.0,46,-99.99,,,0.00,weatherlink.com 1.10,2013-05-11 00:32:00,
2013-05-10 17:47:00,78.3,56.0,30.03,SE,124,0.0,-999.0,47,-99.99,,,0.00,weatherlink.com 1.10,2013-05-11 00:47:00,
2013-05-10 18:02:00,77.9,57.0,30.03,SSE,153,1.0,-999.0,48,-99.99,,,0.00,weatherlink.com 1.10,2013-05-11 01:02:00,
2013-05-10 18:17:00,77.4,56.0,30.03,SE,143,5.0,-999.0,48,-99.99,,,0.00,weatherlink.com 1.10,2013-05-11 01:17:00,
2013-05-10 18:32:00,76.5,56.0,30.03,SE,132,1.0,-999.0,49,-99.99,,,0.00,weatherlink.com 1.10,2013-05-11 01:32:00,
2013-05-10 18:47:00,75.3,54.0,30.03,SSE,150,1.0,-999.0,48,-99.99,,,0.00,weatherlink.com 1.10,2013-05-11 01:47:00,
2013-05-10 19:02:00,74.2,54.0,30.04,SSE,148,2.0,-999.0,50,-99.99,,,0.00,weatherlink.com 1.10,2013-05-11 02:02:00,
2013-05-10 19:17:00,73.2,54.0,30.03,SE,138,0.0,-999.0,52,-99.99,,,0.00,weatherlink.com 1.10,2013-05-11 02:17:00,
2013-05-10 19:32:00,72.3,54.0,30.04,SE,136,0.0,-999.0,52,-99.99,,,0.00,weatherlink.com 1.10,2013-05-11 02:32:00,
2013-05-10 19:47:00,70.8,53.0,30.05,SE,140,5.0,-999.0,54,-99.99,,,0.00,weatherlink.com 1.10,2013-05-11 02:47:00,
2013-05-10 20:02:00,68.9,53.0,30.06,SE,134,0.0,-999.0,57,-99.99,,,0.00,weatherlink.com 1.10,2013-05-11 03:02:00,
2013-05-10 20:17:00,67.4,52.0,30.07,SSE,147,3.0,-999.0,59,-99.99,,,0.00,weatherlink.com 1.10,2013-05-11 03:17:00,
2013-05-10 20:32:00,66.1,52.0,30.07,SE,144,0.0,-999.0,61,-99.99,,,0.00,weatherlink.com 1.10,2013-05-11 03:32:00,
2013-05-10 20:47:00,64.5,51.0,30.07,SE,144,1.0,-999.0,63,-99.99,,,0.00,weatherlink.com 1.10,2013-05-11 03:47:00,
2013-05-10 21:03:00,63.1,51.0,30.08,SE,130,0.0,-999.0,66,-99.99,,,0.00,weatherlink.com 1.10,2013-05-11 04:03:00,
2013-05-10 21:18:00,62.0,51.0,30.09,SSE,163,0.0,-999.0,68,-99.99,,,0.00,weatherlink.com 1.10,2013-05-11 04:18:00,
2013-05-10 21:33:00,61.2,51.0,30.10,SSE,158,2.0,-999.0,69,-99.99,,,0.00,weatherlink.com 1.10,2013-05-11 04:33:00,
2013-05-10 21:48:00,60.2,51.0,30.10,ESE,106,1.0,-999.0,71,-99.99,,,0.00,weatherlink.com 1.10,2013-05-11 04:48:00,
2013-05-10 22:02:00,59.6,51.0,30.10,ESE,106,0.0,-999.0,72,-99.99,,,0.00,weatherlink.com 1.10,2013-05-11 05:02:00,
2013-05-10 22:17:00,59.2,51.0,30.10,ESE,106,0.0,-999.0,73,-99.99,,,0.00,weatherlink.com 1.10,2013-05-11 05:17:00,
2013-05-10 22:32:00,58.7,50.0,30.11,ESE,106,3.0,-999.0,74,-99.99,,,0.00,weatherlink.com 1.10,2013-05-11 05:32:00,
2013-05-10 22:47:00,58.1,50.0,30.11,ESE,106,0.0,-999.0,75,-99.99,,,0.00,weatherlink.com 1.10,2013-05-11 05:47:00,
2013-05-10 23:02:00,57.3,50.0,30.11,ESE,106,0.0,-999.0,76,-99.99,,,0.00,weatherlink.com 1.10,2013-05-11 06:02:00,
2013-05-10 23:17:00,56.9,50.0,30.11,ESE,106,0.0,-999.0,77,-99.99,,,0.00,weatherlink.com 1.10,2013-05-11 06:17:00,
2013-05-10 23:32:00,56.6,49.0,30.11,ESE,106,0.0,-999.0,77,-99.99,,,0.00,weatherlink.com 1.10,2013-05-11 06:32:00,
2013-05-10 23:47:00,56.2,49.0,30.11,ESE,106,0.0,-999.0,78,-99.99,,,0.00,weatherlink.com 1.10,2013-05-11 06:47:00,